Weather History for West Palm Beach, FL

Change the Weather History Date:

Wednesday, May 29, 2013

  Actual Average Record
Temperature  
Mean Temperature 76 °F 80 °F  
Max Temperature 80 °F 87 °F 96 °F (1971)
Min Temperature 71 °F 73 °F 59 °F (1901)
Degree Days  
Heating Degree Days 0 0  
Month to date heating degree days 0 0  
Since 1 July heating degree days 164 233  
Cooling Degree Days 11 15  
Month to date cooling degree days 328 382  
Year to date cooling degree days 1155 1077  
Growing Degree Days 26 (Base 50)    
Moisture  
Dew Point 71 °F    
Average Humidity 81    
Maximum Humidity 93    
Minimum Humidity 69    
Precipitation  
Precipitation 1.55 in 0.22 in 3.58 in (1890)
Month to date precipitation 14.96 4.06  
Year to date precipitation 24.24 18.26  
Snow  
Snow 0.00 in - - ()
Month to date snowfall 0.0  
Since 1 July snowfall 0.0  
Snow Depth 0.00 in    
Sea Level Pressure  
Sea Level Pressure 30.07 in    
Wind  
Wind Speed 15 mph (ESE)    
Max Wind Speed 30 mph    
Max Gust Speed 39 mph    
Visibility 8 miles    
Events Rain , Thunderstorm    
T = Trace of Precipitation, MM = Missing Value Source: NWS Daily Summary

Daily Weather History Graph

Daily Weather History Graph

Search for Another Location

Airport:

Trip Planner

Search our weather history database for the weather conditions in past years. The results will help you decide how hot, cold, wet, or windy it might be!

Date:

Astronomy

May. 29, 2013 Rise Set
Actual Time 6:27 AM EDT 8:08 PM EDT
Civil Twilight 6:01 AM EDT 8:34 PM EDT
Nautical Twilight 5:30 AM EDT 9:05 PM EDT
Astronomical Twilight 4:58 AM EDT 9:37 PM EDT
Moon No Moon Rise 11:10 AM EDT (5/29)
Length of Visible Light 14h 32m
Length of Day
13h 40m
Waning Gibbous, 73% of the Moon is Illuminated
May 29
Waning Gibbous
May 31
Last Quarter
Jun 8
New
Jun 16
First Quarter
Jun 23
Full

Hourly Weather History & Observations

Time (EDT) Temp. Heat Index Dew Point Humidity Pressure Visibility Wind Dir Wind Speed Gust Speed Precip Events Conditions
12:27 AM 77.0 °F - 69.8 °F 78% 30.08 in 10.0 mi East 15.0 mph - N/A   Mostly Cloudy
12:53 AM 77.0 °F - 71.1 °F 82% 30.09 in 10.0 mi East 15.0 mph - N/A   Mostly Cloudy
1:53 AM 77.0 °F - 71.1 °F 82% 30.06 in 10.0 mi ESE 18.4 mph 24.2 mph N/A   Mostly Cloudy
1:59 AM 75.2 °F - 69.8 °F 83% 30.07 in 4.0 mi SE 11.5 mph 25.3 mph 0.00 in Rain Rain
2:12 AM 71.6 °F - 69.8 °F 94% 30.06 in 10.0 mi SE 8.1 mph - 0.18 in Rain Light Rain
2:53 AM 75.0 °F - 72.0 °F 90% 30.05 in 10.0 mi ESE 12.7 mph - 0.19 in Rain Light Rain
3:53 AM 77.0 °F - 73.0 °F 88% 30.03 in 10.0 mi East 15.0 mph - 0.00 in   Mostly Cloudy
4:29 AM 73.4 °F - 69.8 °F 88% 30.04 in 10.0 mi SE 16.1 mph 26.5 mph 0.01 in   Overcast
4:34 AM 73.4 °F - 69.8 °F 88% 30.03 in 2.0 mi SSE 21.9 mph 32.2 mph 0.02 in Rain , Thunderstorm Heavy Thunderstorms and Rain
4:36 AM 71.6 °F - 69.8 °F 94% 30.03 in 1.0 mi SSE 23.0 mph 32.2 mph 0.03 in Rain , Thunderstorm Heavy Thunderstorms and Rain
4:50 AM 71.6 °F - 71.6 °F 100% 30.03 in 6.0 mi Variable 5.8 mph - 0.31 in Rain , Thunderstorm Heavy Thunderstorms and Rain
4:53 AM 72.0 °F - 72.0 °F 100% 30.03 in 7.0 mi South 8.1 mph - 0.33 in Rain , Thunderstorm Thunderstorms and Rain
5:00 AM 71.6 °F - 71.6 °F 100% 30.03 in 10.0 mi South 4.6 mph - 0.05 in Rain , Thunderstorm Thunderstorms and Rain
5:23 AM 71.6 °F - 69.8 °F 94% 30.04 in 8.0 mi South 4.6 mph - 0.08 in Rain Rain
5:53 AM 71.1 °F - 70.0 °F 96% 30.05 in 9.0 mi Variable 6.9 mph - 0.16 in Rain Rain
5:59 AM 71.6 °F - 69.8 °F 94% 30.04 in 9.0 mi SSW 8.1 mph - 0.03 in Rain , Thunderstorm Light Thunderstorms and Rain
6:29 AM 73.4 °F - 71.6 °F 94% 30.06 in 10.0 mi Variable 4.6 mph - 0.17 in Rain , Thunderstorm Light Thunderstorms and Rain
6:53 AM 72.0 °F - 70.0 °F 93% 30.07 in 7.0 mi East 8.1 mph 18.4 mph 0.21 in Rain , Thunderstorm Light Thunderstorms and Rain
7:34 AM 73.4 °F - 68.0 °F 83% 30.07 in 10.0 mi East 17.3 mph - 0.09 in Rain , Thunderstorm Light Thunderstorms and Rain
7:45 AM 73.4 °F - 68.0 °F 83% 30.07 in 10.0 mi East 11.5 mph 23.0 mph 0.12 in Rain , Thunderstorm Light Thunderstorms and Rain
7:49 AM 75.2 °F - 69.8 °F 83% 30.08 in 6.0 mi East 13.8 mph - 0.13 in Rain Light Rain
7:53 AM 75.0 °F - 70.0 °F 84% 30.08 in 7.0 mi ENE 9.2 mph - 0.15 in Rain Light Rain
8:14 AM 75.2 °F - 71.6 °F 89% 30.09 in 3.0 mi SE 11.5 mph 21.9 mph 0.07 in Rain Heavy Rain
8:19 AM 73.4 °F - 71.6 °F 94% 30.08 in 3.0 mi SE 12.7 mph - 0.08 in Rain Heavy Rain
8:53 AM 73.9 °F - 72.0 °F 93% 30.09 in 3.0 mi East 13.8 mph 19.6 mph 0.13 in Rain Heavy Rain
9:19 AM 75.2 °F - 71.6 °F 89% 30.09 in 10.0 mi ESE 12.7 mph - 0.18 in Rain Light Rain
9:53 AM 75.9 °F - 70.0 °F 82% 30.09 in 10.0 mi ESE 11.5 mph - 0.19 in Rain Light Rain
10:53 AM 78.1 °F - 72.0 °F 81% 30.09 in 10.0 mi ESE 13.8 mph - 0.00 in Rain Light Rain
11:11 AM 77.0 °F - 71.6 °F 83% 30.10 in 3.0 mi ESE 13.8 mph 26.5 mph 0.04 in Rain Heavy Rain
11:42 AM 78.8 °F - 73.4 °F 83% 30.10 in 10.0 mi ESE 13.8 mph - 0.14 in   Overcast
11:50 AM 78.8 °F - 73.4 °F 83% 30.10 in 10.0 mi ESE 17.3 mph 24.2 mph 0.14 in   Overcast
11:53 AM 78.1 °F - 72.0 °F 81% 30.10 in 10.0 mi ESE 18.4 mph 24.2 mph 0.14 in   Overcast
12:48 PM 78.8 °F - 71.6 °F 78% 30.10 in 10.0 mi ESE 16.1 mph - 0.00 in   Overcast
12:53 PM 79.0 °F - 71.1 °F 77% 30.10 in 10.0 mi ESE 16.1 mph - 0.00 in   Overcast
1:53 PM 80.1 °F 82.9 °F 69.1 °F 69% 30.09 in 10.0 mi ESE 20.7 mph - N/A   Overcast
2:21 PM 75.2 °F - 68.0 °F 78% 30.09 in 10.0 mi SE 18.4 mph 39.1 mph 0.00 in Rain Light Rain
2:38 PM 75.2 °F - 69.8 °F 83% 30.10 in 10.0 mi ESE 18.4 mph 27.6 mph 0.00 in   Overcast
2:53 PM 75.0 °F - 70.0 °F 84% 30.09 in 10.0 mi ESE 15.0 mph - 0.00 in Rain Light Rain
3:53 PM 79.0 °F - 71.1 °F 77% 30.06 in 10.0 mi ESE 13.8 mph - 0.00 in   Overcast
4:53 PM 77.0 °F - 70.0 °F 79% 30.05 in 10.0 mi ESE 19.6 mph - 0.00 in   Mostly Cloudy
5:53 PM 79.0 °F - 72.0 °F 79% 30.05 in 10.0 mi ESE 16.1 mph - 0.00 in   Mostly Cloudy
6:01 PM 77.0 °F - 71.6 °F 83% 30.06 in 10.0 mi SE 20.7 mph 27.6 mph 0.00 in Rain Light Rain
6:10 PM 73.4 °F - 69.8 °F 88% 30.05 in 10.0 mi SSE 12.7 mph 26.5 mph 0.00 in Rain Light Rain
6:21 PM 73.4 °F - 71.6 °F 94% 30.05 in 2.0 mi SSE 15.0 mph 20.7 mph 0.00 in Rain Heavy Rain
6:28 PM 73.4 °F - 71.6 °F 94% 30.04 in 4.0 mi SSE 10.4 mph 20.7 mph 0.03 in Rain Light Rain
6:53 PM 73.0 °F - 70.0 °F 90% 30.04 in 8.0 mi SE 13.8 mph 21.9 mph 0.05 in Rain Light Rain
7:53 PM 78.1 °F - 72.0 °F 81% 30.05 in 10.0 mi East 19.6 mph 24.2 mph 0.00 in   Mostly Cloudy
8:08 PM 78.8 °F - 71.6 °F 78% 30.05 in 10.0 mi East 16.1 mph - N/A   Mostly Cloudy
8:53 PM 77.0 °F - 71.1 °F 82% 30.05 in 10.0 mi East 16.1 mph - 0.00 in   Mostly Cloudy
9:53 PM 77.0 °F - 70.0 °F 79% 30.07 in 10.0 mi East 19.6 mph - N/A   Scattered Clouds
10:53 PM 77.0 °F - 70.0 °F 79% 30.07 in 10.0 mi East 19.6 mph - N/A   Scattered Clouds
11:53 PM 77.0 °F - 71.1 °F 82% 30.07 in 10.0 mi ESE 18.4 mph - N/A   Scattered Clouds